CW7664 Weather Reports


Display with metric or nautical units.
time (UTC)temp
F
wind
direction
speed
MPH
gust
MPH
rain 1hr
in
rain 24hr
in
rain mn
in
humidity
%
barometer
mb
20260509230052 73 213 3.0 9.0 0.00 0.00 0.00 63 1010.2
20260509224558 73 246 3.0 10.0 0.00 0.00 0.00 62 1010.3
20260509223050 73 269 2.0 10.0 0.00 0.00 0.00 62 1010.5
20260509221601 73 344 3.0 9.0 0.00 0.00 0.00 62 1010.6
20260509220045 73 331 3.0 9.0 0.00 0.00 0.00 63 1010.8
20260509214544 73 318 3.0 7.0 0.00 0.00 0.00 62 1011.0
20260509213043 73 251 5.0 11.0 0.00 0.00 0.00 62 1011.1
20260509211544 73 246 3.0 9.0 0.00 0.00 0.00 62 1011.3
20260509210041 73 244 3.0 10.0 0.00 0.00 0.00 63 1011.4
20260509204538 73 360 2.0 9.0 0.00 0.00 0.00 63 1011.5
20260509203038 74 142 3.0 10.0 0.00 0.00 0.00 63 1011.4
20260509201547 74 209 4.0 7.0 0.00 0.00 0.00 62 1011.5
20260509200041 74 150 4.0 8.0 0.00 0.00 0.00 62 1011.6
20260509194534 74 218 3.0 11.0 0.00 0.00 0.00 63 1011.7
20260509193031 73 230 4.0 8.0 0.00 0.00 0.00 65 1011.8
20260509191529 72 231 3.0 8.0 0.00 0.00 0.00 65 1012.0
20260509190025 71 240 2.0 7.0 0.00 0.00 0.00 67 1012.2
20260509184526 70 203 2.0 9.0 0.00 0.00 0.00 68 1012.3
20260509183018 69 206 3.0 8.0 0.00 0.00 0.00 70 1012.5
20260509181515 69 213 3.0 7.0 0.00 0.00 0.00 71 1012.6
20260509180011 67 261 3.0 5.0 0.00 0.00 0.00 74 1012.7
20260509174507 65 302 1.0 5.0 0.00 0.00 0.00 78 1012.7
20260509173003 63 244 1.0 4.0 0.00 0.00 0.00 81 1012.8
20260509171559 62 335 1.0 5.0 0.00 0.00 0.00 82 1012.8
20260509170106 60 281 1.0 4.0 0.00 0.00 0.00 83 1012.8
20260509164557 60 106 0.0 4.0 0.00 0.00 0.00 84 1012.8
20260509163052 59 303 0.0 3.0 0.00 0.00 0.00 84 1012.9
20260509161556 59 144 0.0 3.0 0.00 0.00 0.00 84 1012.9
20260509160043 58 320 0.0 3.0 0.00 0.00 0.00 85 1012.9
20260509154538 58 296 0.0 1.0 0.00 0.00 0.00 85 1012.9
20260509153034 58 283 0.0 2.0 0.00 0.00 0.00 85 1013.0
20260509151536 57 287 0.0 1.0 0.00 0.00 0.00 84 1012.9
20260509150035 57 57 0.0 2.0 0.00 0.00 0.00 85 1012.8
20260509144532 57 52 0.0 2.0 0.00 0.00 0.00 85 1012.8
20260509143026 57 52 0.0 1.0 0.00 0.00 0.00 85 1012.8
20260509141525 57 97 0.0 2.0 0.00 0.00 0.00 84 1012.7
20260509140022 57 282 0.0 2.0 0.00 0.00 0.00 85 1012.7
20260509134520 57 282 0.0 1.0 0.00 0.00 0.00 84 1012.7
20260509133019 57 303 0.0 0.0 0.00 0.00 0.00 84 1012.5
20260509131524 57 320 0.0 0.0 0.00 0.00 0.00 84 1012.4
20260509130018 57 42 0.0 0.0 0.00 0.00 0.00 84 1012.2
20260509124520 57 42 0.0 0.0 0.00 0.00 0.00 84 1012.1
20260509123016 57 54 0.0 2.0 0.00 0.00 0.00 84 1012.0
20260509121523 57 355 0.0 1.0 0.00 0.00 0.00 84 1012.0
20260509120013 57 355 0.0 2.0 0.00 0.00 0.00 84 1012.1
20260509114522 56 355 0.0 2.0 0.00 0.00 0.00 84 1012.2
20260509113013 56 12 0.0 3.0 0.00 0.00 0.00 84 1012.1
20260509111512 57 355 0.0 2.0 0.00 0.00 0.00 84 1012.1
20260509110011 57 26 0.0 2.0 0.00 0.00 0.00 84 1012.2
20260509104510 57 345 0.0 2.0 0.00 0.00 0.00 84 1012.2
20260509103009 57 335 0.0 1.0 0.00 0.00 0.00 84 1012.3
20260509101508 57 319 0.0 2.0 0.00 0.00 0.00 83 1012.3
20260509100019 57 247 0.0 1.0 0.00 0.00 0.00 83 1012.3
20260509094512 57 225 0.0 1.0 0.00 0.00 0.00 83 1012.3
20260509093009 57 203 0.0 2.0 0.00 0.00 0.00 83 1012.3
20260509091506 57 274 0.0 2.0 0.00 0.00 0.00 83 1012.3
20260509090004 57 262 0.0 3.0 0.00 0.00 0.00 83 1012.4
20260509084503 55 5 0.0 0.0 0.00 0.00 0.00 83 1012.4
20260509083000 55 5 0.0 0.0 0.00 0.00 0.00 82 1012.5
20260509081600 55 5 0.0 2.0 0.00 0.00 0.00 82 1012.5
20260509080056 55 355 0.0 0.0 0.00 0.00 0.00 82 1012.8
20260509074605 55 355 0.0 0.0 0.00 0.00 0.00 82 1012.8
20260509073101 55 355 0.0 0.0 0.00 0.00 0.00 81 1012.8
20260509071602 56 355 0.0 1.0 0.00 0.00 0.00 81 1012.8
20260509070050 56 355 0.0 2.0 0.00 0.00 0.00 81 1012.8
20260509064559 57 333 0.0 0.0 0.00 0.00 0.00 81 1012.9
20260509063049 57 339 0.0 0.0 0.00 0.00 0.00 81 1012.9
20260509061554 57 350 0.0 0.0 0.00 0.00 0.00 80 1012.9
20260509060048 57 350 0.0 0.0 0.00 0.00 0.00 80 1012.9
20260509054548 58 350 0.0 0.0 0.00 0.00 0.00 80 1012.9
20260509053047 58 350 0.0 0.0 0.00 0.00 0.00 79 1012.9
20260509051549 59 350 0.0 0.0 0.00 0.00 0.00 79 1012.8
20260509050046 59 350 0.0 0.0 0.00 0.00 0.00 78 1012.8
20260509044545 60 350 0.0 2.0 0.00 0.00 0.00 78 1012.8
20260509043054 60 333 0.0 1.0 0.00 0.00 0.00 77 1012.6
20260509041545 61 333 0.0 1.0 0.00 0.00 0.00 77 1012.4
20260509040046 61 302 0.0 0.0 0.00 0.00 0.00 76 1012.2
20260509034550 62 302 0.0 1.0 0.00 0.00 0.00 75 1012.1
20260509033049 63 302 0.0 1.0 0.00 0.00 0.00 75 1012.0
20260509031543 63 302 0.0 1.0 0.00 0.00 0.00 75 1012.0
20260509030043 63 291 0.0 3.0 0.00 0.00 0.00 74 1011.9
20260509024543 64 281 0.0 5.0 0.00 0.00 0.00 74 1012.0
20260509023041 64 264 1.0 7.0 0.00 0.00 0.00 73 1011.8
20260509021542 65 326 1.0 6.0 0.00 0.00 0.00 72 1011.5
20260509020040 65 250 2.0 6.0 0.00 0.00 0.00 71 1011.6
20260509014541 67 159 1.0 5.0 0.00 0.00 0.00 69 1011.5
20260509013048 67 218 2.0 6.0 0.00 0.00 0.00 70 1011.7
20260509011539 67 150 3.0 6.0 0.00 0.00 0.00 69 1011.7
20260509010039 68 244 3.0 7.0 0.00 0.00 0.00 68 1011.7
20260509004538 68 232 3.0 10.0 0.00 0.00 0.00 68 1011.8
20260509003038 69 180 4.0 10.0 0.00 0.00 0.00 67 1011.7
20260509001545 69 217 4.0 9.0 0.00 0.00 0.00 66 1011.6
20260509000035 70 247 3.0 10.0 0.00 0.00 0.00 66 1011.7
20260508234534 70 202 3.0 10.0 0.00 0.00 0.00 66 1011.8
20260508233034 71 134 4.0 11.0 0.00 0.00 0.00 65 1011.9
20260508231534 72 184 3.0 8.0 0.00 0.00 0.00 64 1012.1